軌道要素
Epoch 2010 Sept. 1.0 TT = JDT 2455440.5
T 2010 Sept. 3.91459 TT MPC
q 4.2475175 (2000.0) P Q
z +0.0001030 Peri. 304.64120 -0.33202458 -0.08030386
+/-0.0000012 Node 255.23810 -0.14098699 -0.98095233
e 0.9995626 Incl. 76.39162 -0.93267483 +0.17687233
From 66 observations 2010 Feb. 24-2013 June 11, mean residual 0".6.
|